| time (UTC) | temp F | wind direction | speed MPH | gust MPH | rain 1hr in | rain 24hr in | rain mn in | humidity % | barometer mb |
| 20260906173023 | 57 | 231 | 4.0 | 10.0 | 0.00 | 0.00 | 0.00 | 75 | 1013.7 |
| 20260906171523 | 56 | 304 | 4.0 | 9.0 | 0.00 | 0.00 | 0.00 | 76 | 1013.7 |
| 20260906170023 | 56 | 264 | 5.0 | 9.0 | 0.00 | 0.00 | 0.00 | 76 | 1013.8 |
| 20260906164521 | 56 | 269 | 5.0 | 7.0 | 0.00 | 0.00 | 0.00 | 79 | 1014.0 |
| 20260906163024 | 55 | 247 | 4.0 | 6.0 | 0.00 | 0.00 | 0.00 | 77 | 1014.1 |
| 20260906161523 | 55 | 281 | 3.0 | 5.0 | 0.00 | 0.00 | 0.00 | 77 | 1014.2 |
| 20260906160020 | 55 | 197 | 1.0 | 3.0 | 0.00 | 0.00 | 0.00 | 77 | 1014.1 |
| 20260906154533 | 54 | 191 | 1.0 | 4.0 | 0.00 | 0.00 | 0.00 | 78 | 1014.2 |
| 20260906153019 | 54 | 184 | 3.0 | 6.0 | 0.00 | 0.00 | 0.00 | 79 | 1014.3 |
| 20260906151516 | 52 | 210 | 7.0 | 9.0 | 0.00 | 0.00 | 0.00 | 81 | 1014.5 |
| 20260906150015 | 52 | 239 | 6.0 | 9.0 | 0.00 | 0.00 | 0.00 | 81 | 1014.4 |
| 20260906144518 | 52 | 240 | 8.0 | 15.0 | 0.00 | 0.00 | 0.00 | 81 | 1014.4 |
| 20260906143011 | 51 | 214 | 11.0 | 16.0 | 0.00 | 0.00 | 0.00 | 85 | 1013.8 |
| 20260906141513 | 50 | 250 | 8.0 | 11.0 | 0.00 | 0.00 | 0.00 | 90 | 1013.7 |
| 20260906140008 | 0 | 0.0 | 0.0 | 0.00 | 0.00 | 0.00 | 1012.8 | ||
| 20260906134503 | 0 | 0.0 | 0.0 | 0.00 | 0.00 | 0.00 | 1012.7 | ||
| 20260906133105 | 0 | 0.0 | 0.0 | 0.00 | 0.00 | 0.00 | 1012.8 | ||
| 20260906131601 | 0 | 0.0 | 0.0 | 0.00 | 0.00 | 0.00 | 1012.5 | ||
| 20260906130055 | 0 | 0.0 | 0.0 | 0.00 | 0.00 | 0.00 | 1012.3 | ||
| 20260906124545 | 0 | 0.0 | 0.0 | 0.00 | 0.00 | 0.00 | 1012.1 | ||
| 20260906123044 | 0 | 0.0 | 0.0 | 0.00 | 0.00 | 0.00 | 1012.2 | ||
| 20260906121537 | 0 | 0.0 | 0.0 | 0.00 | 0.00 | 0.00 | 1012.4 | ||
| 20260906120031 | 0 | 0.0 | 0.0 | 0.00 | 0.00 | 0.00 | 1012.3 | ||
| 20260906114531 | 0 | 0.0 | 0.0 | 0.00 | 0.00 | 0.00 | 1012.4 | ||
| 20260906113023 | 0 | 0.0 | 0.0 | 0.00 | 0.00 | 0.00 | 1012.5 | ||
| 20260906111519 | 0 | 0.0 | 0.0 | 0.00 | 0.00 | 0.00 | 1012.3 | ||
| 20260906110014 | 0 | 0.0 | 0.0 | 0.00 | 0.00 | 0.00 | 1012.3 | ||
| 20260906104522 | 0 | 0.0 | 0.0 | 0.00 | 0.00 | 0.00 | 1012.3 | ||
| 20260906103016 | 0 | 0.0 | 0.0 | 0.00 | 0.00 | 0.00 | 1012.3 | ||
| 20260906101501 | 0 | 0.0 | 0.0 | 0.00 | 0.00 | 0.00 | 1012.4 | ||
| 20260906094556 | 52 | 97 | 3.0 | 3.0 | 0.00 | 0.00 | 0.00 | 89 | 1012.4 |
| 20260906093052 | 53 | 97 | 2.0 | 3.0 | 0.00 | 0.00 | 0.00 | 89 | 1012.5 |
| 20260906091550 | 53 | 85 | 0.0 | 1.0 | 0.00 | 0.00 | 0.00 | 89 | 1012.5 |
| 20260906090049 | 53 | 85 | 0.0 | 2.0 | 0.00 | 0.00 | 0.00 | 88 | 1012.6 |
| 20260906084547 | 53 | 84 | 2.0 | 3.0 | 0.00 | 0.00 | 0.00 | 88 | 1012.6 |
| 20260906083043 | 54 | 113 | 1.0 | 4.0 | 0.00 | 0.00 | 0.00 | 86 | 1012.8 |
| 20260906081542 | 54 | 15 | 1.0 | 2.0 | 0.00 | 0.00 | 0.00 | 88 | 1012.9 |
| 20260906080038 | 55 | 136 | 2.0 | 3.0 | 0.00 | 0.00 | 0.00 | 85 | 1013.0 |
| 20260906074538 | 56 | 70 | 2.0 | 4.0 | 0.00 | 0.00 | 0.00 | 83 | 1013.0 |
| 20260906073032 | 56 | 316 | 0.0 | 3.0 | 0.00 | 0.00 | 0.00 | 82 | 1013.4 |
| 20260906071530 | 56 | 105 | 0.0 | 4.0 | 0.00 | 0.00 | 0.00 | 82 | 1013.4 |
| 20260906070027 | 57 | 91 | 1.0 | 2.0 | 0.00 | 0.00 | 0.00 | 82 | 1013.6 |
| 20260906064527 | 58 | 91 | 2.0 | 4.0 | 0.00 | 0.00 | 0.00 | 80 | 1013.4 |
| 20260906063030 | 57 | 323 | 0.0 | 4.0 | 0.00 | 0.00 | 0.00 | 79 | 1013.4 |
| 20260906061525 | 59 | 107 | 3.0 | 7.0 | 0.00 | 0.00 | 0.00 | 75 | 1013.4 |
| 20260906060025 | 60 | 70 | 8.0 | 10.0 | 0.00 | 0.00 | 0.00 | 73 | 1013.4 |
| 20260906054544 | 60 | 75 | 9.0 | 11.0 | 0.00 | 0.00 | 0.00 | 74 | 1013.5 |
| 20260906053023 | 59 | 87 | 6.0 | 9.0 | 0.00 | 0.00 | 0.00 | 74 | 1013.7 |
| 20260906051530 | 59 | 51 | 5.0 | 10.0 | 0.00 | 0.00 | 0.00 | 72 | 1013.6 |
| 20260906050028 | 60 | 68 | 2.0 | 2.0 | 0.00 | 0.00 | 0.00 | 71 | 1013.7 |
| 20260906044521 | 60 | 79 | 0.0 | 3.0 | 0.00 | 0.00 | 0.00 | 68 | 1014.0 |
| 20260906043021 | 59 | 76 | 4.0 | 6.0 | 0.00 | 0.00 | 0.00 | 68 | 1014.1 |
| 20260906041520 | 60 | 108 | 2.0 | 5.0 | 0.00 | 0.00 | 0.00 | 65 | 1014.1 |
| 20260906040021 | 62 | 356 | 6.0 | 7.0 | 0.00 | 0.00 | 0.00 | 60 | 1013.7 |
| 20260906034521 | 62 | 54 | 0.0 | 3.0 | 0.00 | 0.00 | 0.00 | 62 | 1013.9 |
| 20260906033018 | 62 | 56 | 3.0 | 7.0 | 0.00 | 0.00 | 0.00 | 61 | 1014.2 |
| 20260906031552 | 61 | 97 | 4.0 | 7.0 | 0.00 | 0.00 | 0.00 | 63 | 1014.2 |
| 20260906030017 | 61 | 25 | 5.0 | 8.0 | 0.00 | 0.00 | 0.00 | 61 | 1013.7 |
| 20260906024535 | 61 | 70 | 3.0 | 6.0 | 0.00 | 0.00 | 0.00 | 61 | 1013.4 |
| 20260906023017 | 63 | 54 | 2.0 | 4.0 | 0.00 | 0.00 | 0.00 | 59 | 1013.6 |
| 20260906021515 | 64 | 49 | 1.0 | 5.0 | 0.00 | 0.00 | 0.00 | 57 | 1013.5 |
| 20260906020014 | 66 | 22 | 0.0 | 3.0 | 0.00 | 0.00 | 0.00 | 54 | 1013.6 |
| 20260906014518 | 68 | 6 | 0.0 | 4.0 | 0.00 | 0.00 | 0.00 | 51 | 1013.7 |
| 20260906013013 | 68 | 5 | 1.0 | 7.0 | 0.00 | 0.00 | 0.00 | 51 | 1013.6 |
| 20260906011512 | 67 | 341 | 5.0 | 7.0 | 0.00 | 0.00 | 0.00 | 50 | 1013.5 |
| 20260906010031 | 68 | 63 | 1.0 | 5.0 | 0.00 | 0.00 | 0.00 | 48 | 1013.5 |
| 20260906004511 | 68 | 56 | 3.0 | 6.0 | 0.00 | 0.00 | 0.00 | 48 | 1013.4 |
| 20260906003010 | 69 | 48 | 3.0 | 6.0 | 0.00 | 0.00 | 0.00 | 47 | 1013.5 |
| 20260906001507 | 68 | 39 | 2.0 | 7.0 | 0.00 | 0.00 | 0.00 | 48 | 1013.5 |
| 20260906000007 | 68 | 60 | 2.0 | 6.0 | 0.00 | 0.00 | 0.00 | 49 | 1013.5 |
| 20260905234502 | 68 | 127 | 4.0 | 6.0 | 0.00 | 0.00 | 0.00 | 50 | 1013.5 |
| 20260905233059 | 66 | 98 | 4.0 | 11.0 | 0.00 | 0.00 | 0.00 | 53 | 1013.5 |
| 20260905231558 | 66 | 86 | 5.0 | 11.0 | 0.00 | 0.00 | 0.00 | 53 | 1013.3 |
| 20260905230058 | 65 | 63 | 8.0 | 12.0 | 0.00 | 0.00 | 0.00 | 55 | 1013.6 |
| 20260905224555 | 66 | 83 | 9.0 | 13.0 | 0.00 | 0.00 | 0.00 | 56 | 1013.9 |
| 20260905223054 | 67 | 61 | 5.0 | 8.0 | 0.00 | 0.00 | 0.00 | 56 | 1014.1 |
| 20260905221552 | 66 | 61 | 5.0 | 13.0 | 0.00 | 0.00 | 0.00 | 56 | 1014.3 |
| 20260905220049 | 65 | 60 | 7.0 | 10.0 | 0.00 | 0.00 | 0.00 | 57 | 1014.4 |
| 20260905214550 | 63 | 36 | 4.0 | 12.0 | 0.00 | 0.00 | 0.00 | 62 | 1014.9 |
| 20260905213144 | 63 | 77 | 5.0 | 9.0 | 0.00 | 0.00 | 0.00 | 64 | 1014.9 |
| 20260905211601 | 62 | 72 | 7.0 | 10.0 | 0.00 | 0.00 | 0.00 | 63 | 1014.9 |
| 20260905210054 | 63 | 25 | 2.0 | 8.0 | 0.00 | 0.00 | 0.00 | 61 | 1014.8 |
| 20260905204545 | 63 | 65 | 3.0 | 7.0 | 0.00 | 0.00 | 0.00 | 59 | 1015.0 |
| 20260905203043 | 63 | 62 | 6.0 | 10.0 | 0.00 | 0.00 | 0.00 | 60 | 1015.0 |
| 20260905201550 | 62 | 75 | 5.0 | 7.0 | 0.00 | 0.00 | 0.00 | 60 | 1015.2 |
| 20260905200041 | 63 | 104 | 3.0 | 5.0 | 0.00 | 0.00 | 0.00 | 60 | 1015.4 |
| 20260905194540 | 64 | 246 | 0.0 | 4.0 | 0.00 | 0.00 | 0.00 | 58 | 1015.1 |
| 20260905193039 | 63 | 1 | 1.0 | 5.0 | 0.00 | 0.00 | 0.00 | 59 | 1014.9 |
| 20260905191537 | 63 | 188 | 2.0 | 6.0 | 0.00 | 0.00 | 0.00 | 59 | 1015.2 |
| 20260905190037 | 62 | 176 | 2.0 | 7.0 | 0.00 | 0.00 | 0.00 | 60 | 1015.4 |
| 20260905184533 | 61 | 283 | 2.0 | 6.0 | 0.00 | 0.00 | 0.00 | 63 | 1015.3 |
| 20260905183036 | 61 | 228 | 1.0 | 6.0 | 0.00 | 0.00 | 0.00 | 61 | 1015.5 |
| 20260905181531 | 60 | 225 | 4.0 | 6.0 | 0.00 | 0.00 | 0.00 | 63 | 1015.6 |
| 20260905180029 | 61 | 215 | 2.0 | 3.0 | 0.00 | 0.00 | 0.00 | 65 | 1016.0 |
| 20260905174529 | 60 | 243 | 3.0 | 4.0 | 0.00 | 0.00 | 0.00 | 65 | 1016.0 |